Location: Il Ritiro
(43.4167°N, 13.1333°E)
Time: 00:41:26
(UTC+00:00)

COSMOS 2455 - Pass Details

Date: 05 July 2020
Orbit: 898 x 911 km, 67.1° (Epoch: 11 August)

Event Time Altitude Azimuth Distance (km) Brightness Sun altitude
Rises 23:28:07 0° 328° (NNW) 3,550 6.8 -23.8°
Reaches altitude 10° 23:30:38 10° 328° (NNW) 2,605 5.9 -23.8°
Maximum altitude 23:36:42 85° 242° (WSW) 920 2.7 -23.7°
Enters shadow 23:38:24 50° 158° (SSE) 1,150 3.0 -23.6°
